DUBAISAT-1

Last updated on Mon Sep 21 2026 00:02:45 GMT+0000 (Coordinated Universal Time)

1 35682U 09041B 26263.59193741 .00000544 00000+0 87867-4 0 9998 2 35682 98.0184 35.8842 0011515 121.2250 239.0089 14.75257619919166
UTC large
Height (km)
Speed (km/s)
/
Latitude / Longitude
Inclination (degrees)
Orbital Period (minutes)
Azimuth
Elevation
Range (km)
Doppler Factor

Next 0 passes for location: London (51.5072 / 0.1276)

No passes found over London.
DUBAISAT-1